This is the latest recevied weather packets stored in our database for station/object OE3MNS-13. If no packets are shown the sender has not sent any weather packets the latest 10 day(s).
| Time | Temp. | Humidity | Pressure | Rain* | Wind** | Luminosity | Snow |
|---|---|---|---|---|---|---|---|
| 1778405120 | 18.33° C | 50% | 1014.1 hPa | 1.02 mm | - | 730 W/m² | - |
| 1778404520 | 18.33° C | 49% | 1014.3 hPa | 1.02 mm | - | 714 W/m² | - |
| 1778403921 | 17.78° C | 50% | 1014.4 hPa | 1.02 mm | - | 696 W/m² | - |
| 1778403319 | 18.33° C | 48% | 1014.6 hPa | 1.02 mm | - | 679 W/m² | - |
| 1778402721 | 17.78° C | 48% | 1014.5 hPa | 1.02 mm | - | 644 W/m² | - |
| 1778402121 | 18.33° C | 48% | 1014.7 hPa | 1.02 mm | - | 632 W/m² | - |
| 1778401521 | 17.78° C | 49% | 1014.8 hPa | 1.02 mm | - | 617 W/m² | - |
| 1778401220 | 17.78° C | 49% | 1014.9 hPa | 1.02 mm | - | 605 W/m² | - |
| 1778400620 | 17.78° C | 50% | 1015.1 hPa | 1.02 mm | - | 571 W/m² | - |
| 1778400017 | 17.22° C | 53% | 1015.2 hPa | 1.02 mm | - | 547 W/m² | - |
| 1778399716 | 17.22° C | 53% | 1015.2 hPa | 1.02 mm | - | 535 W/m² | - |
| 1778399122 | 16.67° C | 55% | 1015.3 hPa | 1.02 mm | - | 507 W/m² | - |
| 1778398521 | 15.56° C | 58% | 1015.5 hPa | 1.02 mm | - | 486 W/m² | - |
| 1778398219 | 15.56° C | 62% | 1015.6 hPa | 1.02 mm | - | 471 W/m² | - |
| 1778397621 | 14.44° C | 63% | 1015.8 hPa | 1.02 mm | - | 444 W/m² | - |
| 1778397022 | 13.89° C | 68% | 1015.7 hPa | 1.02 mm | - | 412 W/m² | - |
| 1778396420 | 12.22° C | 70% | 1015.8 hPa | 1.02 mm | - | 383 W/m² | - |
| 1778395822 | 11.67° C | 74% | 1016.2 hPa | 1.02 mm | - | 354 W/m² | - |
| 1778395221 | 11.11° C | 75% | 1016.3 hPa | 1.02 mm | - | 322 W/m² | - |
| 1778394621 | 10.56° C | 77% | 1016.5 hPa | 1.02 mm | - | 291 W/m² | - |
| 1778394321 | 10° C | 78% | 1016.6 hPa | 1.02 mm | - | 276 W/m² | - |
| 1778394018 | 10° C | 79% | 1016.6 hPa | 1.02 mm | - | 261 W/m² | - |
| 1778393422 | 9.44° C | 80% | 1016.4 hPa | 1.02 mm | - | 232 W/m² | - |
| 1778393121 | 8.89° C | 81% | 1016.6 hPa | 1.02 mm | - | 217 W/m² | - |
| 1778392521 | 8.33° C | 83% | 1016.6 hPa | 1.02 mm | - | 188 W/m² | - |
* Rain latest hour (hover to see other rain measurements)
** Current wind speed in m/s (hover to see current wind gust speed)